Location: Unspecified
(35.6961°N, 0.0000°E)
Time: 11:09:05
(UTC+00:00)

Vanguard 3 - Pass Details

Date: 30 May 2019
Orbit: 508 x 3263 km, 33.3° (Epoch: 19 June)

Event Time Altitude Azimuth Distance (km) Brightness Sun altitude
Rises 22:49:45 0° 276° (W) 3,608 10.8 -30.3°
Reaches altitude 10° 22:51:53 10° 272° (W) 2,905 10.2 -30.4°
Enters shadow 22:58:47 58° 201° (SSW) 1,754 8.4 -30.8°
Maximum altitude 22:59:01 58° 195° (SSW) 1,770 - -30.8°
Drops below altitude 10° 23:11:51 10° 121° (ESE) 5,044 - -31.5°
Sets 23:16:49 0° 119° (ESE) 6,451 - -31.7°
